Location: Callanans Corners
(42.5326°N, 73.8846°W)
Time: 15:30:44
(UTC+00:00)

COSMO-SKYMED 1 - Pass Details

Date: 06 October 2022
Orbit: 621 x 623 km, 97.9° (Epoch: 29 November)

Event Time Altitude Azimuth Distance (km) Brightness Sun altitude
Rises 22:48:41 0° 16° (NNE) 2,915 5.8 -4.6°
Reaches altitude 10° 22:50:54 10° 20° (NNE) 2,003 5.0 -5.0°
Maximum altitude 22:55:13 61° 101° (E) 708 2.6 -5.8°
Drops below altitude 10° 22:59:30 10° 182° (S) 1,986 5.2 -6.6°
Sets 23:01:42 0° 186° (S) 2,888 6.1 -7.0°
